SERIAL,TIME,MODEL,SN(OPTODE),OXYGEN,SATURATION,TEMPERATURE,CALPHASE,TCPHASE,C1RPH,C2RPH,C1AMP,C2AMP,RAWTEMP,CHECK
7,1449493614,4330,1171,230.6752929687500000,60.7956809997558600,6.9320659637451170,36.4724311828613300,37.6747589111328100,39.5185394287109400,1.8437809944152832,1064.9050292968750000,1060.5729980468750000,663.9293823242188000,51883
7,1449495866,4330,1171,187.4403991699218800,51.9374008178710940,8.9788913726806640,37.9102706909179700,39.0933990478515600,41.1501502990722660,2.0567469596862793,1112.8580322265625000,1032.1899414062500000,601.9404907226562000,59300
7,1449496446,4330,1171,185.3997955322265600,52.0744209289550800,9.5472564697265620,37.7345695495605500,38.9200401306152340,41.0186614990234400,2.0986249446868896,1105.9169921875000000,1024.5799560546875000,584.5045776367188000,46086
7,1449497047,4330,1171,188.1051940917968800,53.9268302917480500,10.4148101806640620,37.0814704895019500,38.2756690979003900,40.4301795959472660,2.1545100212097170,1081.9289550781250000,1014.4099731445312000,557.7150878906250000,8295
7,1449497558,4330,1171,200.0173950195312500,58.4672813415527340,11.2510995864868160,35.8716011047363300,37.0819511413574200,39.3017005920410160,2.2197420597076416,1038.2929687500000000,1002.7880249023438000,531.6997070312500000,13750
7,1449500338,4330,1171,234.5968933105468800,73.7400283813476600,14.4879302978515620,32.3025283813476560,33.5605506896972660,35.9525184631347660,2.3919749259948730,907.2030029296875000,960.1660766601562000,429.4570922851562500,37755
7,1449500359,4330,1171,234.6006927490234400,73.7485427856445300,14.4924898147583000,32.3000411987304700,33.5580902099609400,35.9531784057617200,2.3950879573822020,907.0443725585938000,959.3593750000000000,429.3116149902344000,11417
7,1449500380,4330,1171,234.5139007568359400,73.7276763916015600,14.4964895248413090,32.3029403686523440,33.5609512329101560,35.9581413269043000,2.3971860408782960,906.9951171875000000,958.9498901367188000,429.1839904785156000,39146
7,1449500401,4330,1171,234.4812011718750000,73.7208023071289000,14.4985904693603520,32.3033790588378900,33.5613899230957000,35.9599685668945300,2.3985819816589355,906.9315185546875000,958.4901123046875000,429.1170043945312500,54604
7,1449500423,4330,1171,234.4492034912109400,73.7195663452148400,14.5040798187255860,32.3020706176757800,33.5601005554199200,35.9580993652343750,2.3980031013488770,906.8640136718750000,958.4091186523438000,428.9418029785156000,20084
7,1449500444,4330,1171,234.2832031250000000,73.7301101684570300,14.5431299209594730,32.2921295166015600,33.5502891540527340,35.9490089416503900,2.3987269401550293,906.5892944335938000,958.1115112304688000,427.6947937011719000,26508
7,1449500467,4330,1171,234.0836944580078000,73.7134170532226600,14.5718297958374020,32.2881088256835940,33.5463218688964840,35.9450798034668000,2.3987579345703125,906.2971191406250000,957.8336791992188000,426.7785949707031000,36821
7,1449500488,4330,1171,234.0390930175781200,73.7389984130859400,14.5965404510498050,32.2786216735839840,33.5369606018066400,35.9358291625976560,2.3988718986511230,906.1265869140625000,957.4063110351562000,425.9895019531250000,49063
7,1449500509,4330,1171,233.9844055175781200,73.7404937744140600,14.6081895828247070,32.2759284973144500,33.5343093872070300,35.9351692199707000,2.4008638858795166,905.8065185546875000,957.0172729492188000,425.6173095703125000,65160
7,1449500531,4330,1171,233.5267944335937500,73.7276916503906200,14.6901798248291020,32.2595596313476560,33.5181617736816400,35.9189300537109400,2.4007720947265625,905.2924804687500000,956.7327270507812000,422.9977111816406000,51073
7,1449500560,4330,1171,233.2214050292968800,73.7124786376953100,14.7409095764160160,32.2506294250488300,33.5093383789062500,35.9106101989746100,2.4012761116027830,904.7437744140625000,956.4849853515625000,421.3765869140625000,52819
7,1449500581,4330,1171,233.2144012451172000,73.7475128173828100,14.7641696929931640,32.2400588989257800,33.4989204406738300,35.9005203247070300,2.4016039371490480,904.4517211914062000,955.5897216796875000,420.6330871582031000,21908
7,1449500604,4330,1171,233.1871032714843800,73.7710266113281200,14.7842397689819340,32.2313919067382800,33.4903602600097660,35.8932991027832000,2.4029459953308105,903.9791259765625000,955.3717041015625000,419.9913940429687500,36667
7,1449500625,4330,1171,233.2079925537109400,73.7993621826171900,14.7978200912475590,32.2241401672363300,33.4832115173339840,35.8879394531250000,2.4047319889068604,903.7241210937500000,954.8538208007812000,419.5570983886719000,48985
7,1449500655,4330,1171,233.3123931884765600,73.8534927368164000,14.8109598159790040,32.2126808166503900,33.4719009399414060,35.8770904541015600,2.4051899909973145,903.2927856445312000,955.0203857421875000,419.1370849609375000,58591
7,1449500676,4330,1171,233.3218994140625000,73.8602600097656200,14.8133201599121100,32.2109909057617200,33.4702415466308600,35.8743705749511700,2.4041290283203125,903.1796875000000000,954.6464843750000000,419.0616149902344000,59236
7,1449500697,4330,1171,233.3435058593750000,73.8993225097656200,14.8334197998046880,32.2002105712890600,33.4595985412597660,35.8680191040039060,2.4084169864654540,902.8740234375000000,954.2490844726562000,418.4189147949219000,17059
7,1449500728,4330,1171,233.1598052978515600,73.9294509887695300,14.8885602951049800,32.1828308105468750,33.4424400329589840,35.8480300903320300,2.4055860042572020,902.1901855468750000,954.3101196289062000,416.6553039550781000,31937
7,1449500749,4330,1171,233.0265960693359400,73.9540863037109400,14.9303302764892580,32.1697196960449200,33.4295082092285160,35.8357391357421900,2.4062271118164062,901.5864868164062000,953.5650024414062000,415.3189086914062500,41281
7,1449500771,4330,1171,233.1537017822265600,74.0097122192382800,14.9398498535156250,32.1588783264160160,33.4188194274902340,35.8268089294433600,2.4079968929290770,901.1339111328125000,953.2496948242188000,415.0143127441406000,34107
7,1449500800,4330,1171,233.3697052001953000,74.0891723632812500,14.9466600418090820,32.1447715759277340,33.4048995971679700,35.8128890991210940,2.4079899787902830,900.7971191406250000,953.2697753906250000,414.7962951660156000,16209
7,1449500821,4330,1171,233.1423950195312500,74.1002273559570300,14.9986095428466800,32.1316184997558600,33.3919181823730500,35.7996597290039060,2.4077379703521730,900.1696166992188000,952.7028198242188000,413.1340026855469000,60146
7,1449500852,4330,1171,233.3125000000000000,74.2146682739257800,15.0362300872802730,32.1047401428222660,33.3653984069824200,35.7760505676269500,2.4106519222259520,899.1234741210938000,952.5153808593750000,411.9296875000000000,7177
7,1449500873,4330,1171,233.4304046630859400,74.2550735473632800,15.0380296707153320,32.0981216430664060,33.3588714599609400,35.7683410644531250,2.4094700813293457,898.7733154296875000,951.9166870117188000,411.8720092773437500,63501
7,1449500895,4330,1171,233.4927062988281200,74.2998962402343800,15.0536203384399410,32.0872688293457000,33.3481712341308600,35.7581291198730500,2.4099578857421875,898.2955932617188000,951.6400146484375000,411.3728942871094000,35681
7,1449500924,4330,1171,233.6259002685547000,74.3825073242187500,15.0786504745483400,32.0689506530761700,33.3300895690918000,35.7423210144043000,2.4122240543365480,897.7739868164062000,951.6701049804688000,410.5716857910156000,33179
7,1449500953,4330,1171,233.8132019042968800,74.4516983032226600,15.0845899581909180,32.0564918518066400,33.3177909851074200,35.7285118103027340,2.4107129573822020,897.3640747070312000,951.6427001953125000,410.3814086914062500,43175
7,1449501008,4330,1171,234.0274047851562500,74.6361312866211000,15.1567897796630860,32.0113792419433600,33.2732810974121100,35.6841201782226560,2.4108350276947020,895.6400146484375000,951.6826782226562000,408.0690002441406000,39893
7,1449501054,4330,1171,234.5671997070312500,74.9315032958984400,15.2331600189208980,31.9481697082519530,33.2109184265136700,35.6215896606445300,2.4106669425964355,893.5424804687500000,951.1470947265625000,405.6223144531250000,61757
7,1449501076,4330,1171,234.4812011718750000,74.9951400756836000,15.2896299362182620,31.9256401062011720,33.1886901855468750,35.6004600524902340,2.4117739200592040,892.3457031250000000,950.0451049804688000,403.8124084472656000,60746
7,1449501099,4330,1171,234.5980987548828000,75.1334762573242200,15.3521099090576170,31.8903808593750000,33.1539115905761700,35.5700111389160160,2.4161000251770020,891.1666259765625000,949.4434814453125000,401.8091125488281000,39796
7,1449501120,4330,1171,234.7138061523437500,75.2075729370117200,15.3750400543212890,31.8735809326171880,33.1373291015625000,35.5568199157714840,2.4194951057434080,890.4298706054688000,948.6052856445312000,401.0740966796875000,37566
7,1449501141,4330,1171,234.5099945068359400,75.2177429199218800,15.4217596054077150,31.8618392944335940,33.1257514953613300,35.5480308532714840,2.4222788810729980,890.0120239257812000,948.1505737304688000,399.5755004882812500,57086
7,1449501162,4330,1171,234.5670928955078000,75.2605972290039000,15.4369602203369140,31.8518104553222660,33.1158485412597660,35.5412712097168000,2.4254150390625000,889.6387939453125000,947.6223754882812000,399.0880126953125000,31590
7,1449501184,4330,1171,234.4064025878906200,75.2303237915039000,15.4501495361328120,31.8536701202392580,33.1176795959472660,35.5446281433105500,2.4269490242004395,889.5175170898438000,947.1843261718750000,398.6650085449219000,25691
7,1449501205,4330,1171,234.2093963623047000,75.1968994140625000,15.4686002731323240,31.8548507690429700,33.1188507080078100,35.5479316711425800,2.4290769100189210,889.6201171875000000,946.7473144531250000,398.0730895996094000,29467
7,1449501260,4330,1171,230.5527038574218800,74.2301712036132800,15.5990896224975590,31.9780998229980470,33.2404518127441400,35.6702690124511700,2.4298169612884520,893.8615722656250000,946.6381835937500000,393.8851928710937500,18870
7,1449501301,4330,1171,222.2608032226562500,71.6826477050781200,15.6788196563720700,32.3722496032714840,33.6293411254882800,36.0630111694335940,2.4336700439453125,907.9168701171875000,945.8605957031250000,391.3252868652344000,38405
7,1449501322,4330,1171,219.5534973144531200,70.8969573974609400,15.7365703582763670,32.4899711608886700,33.7454910278320300,36.1827507019043000,2.4372630119323730,912.0615844726562000,944.9542236328125000,389.4703979492187500,42554
7,1449501344,4330,1171,216.1195068359375000,69.9206237792968800,15.8254604339599610,32.6349487304687500,33.8885307312011700,36.3282890319824200,2.4397509098052980,917.1215820312500000,944.0166015625000000,386.6146850585937500,18014
7,1449501367,4330,1171,213.6007995605468800,69.1223831176757800,15.8367700576782230,32.7688102722168000,34.0206108093261700,36.4653015136718750,2.4446949958801270,921.6002197265625000,943.1843261718750000,386.2511901855469000,4020
7,1449501388,4330,1171,212.2543029785156200,68.7012329101562500,15.8467102050781250,32.8393707275390600,34.0902214050293000,36.5381088256835940,2.4478909969329834,924.0712280273438000,942.4597167968750000,385.9317932128906000,55623
7,1449501417,4330,1171,211.5334014892578000,68.5362396240234400,15.8935203552246100,32.8576889038085940,34.1082916259765600,36.5598907470703100,2.4515988826751710,924.7288818359375000,942.3997802734375000,384.4270019531250000,58645
7,1449501438,4330,1171,211.7091979980468800,68.6309509277343800,15.9193897247314450,32.8354110717773440,34.0863189697265600,36.5374984741210940,2.4511799812316895,923.8198852539062000,941.7714843750000000,383.5956115722656000,26514
7,1449501460,4330,1171,212.4951934814453000,68.9176788330078100,15.9411296844482420,32.7807617187500000,34.0323905944824200,36.4853401184082000,2.4529418945312500,921.8632812500000000,941.2177124023438000,382.8963928222656000,29576
7,1449501481,4330,1171,213.3836975097656200,69.2153930664062500,15.9475898742675780,32.7279396057128900,33.9802818298339840,36.4357109069824200,2.4554369449615480,919.9415893554688000,940.9130249023438000,382.6886901855469000,61112
7,1449501504,4330,1171,213.7295989990234400,69.3720932006836000,15.9777498245239260,32.6947288513183600,33.9475097656250000,36.4036293029785160,2.4561159610748290,918.6719970703125000,940.7996826171875000,381.7190856933594000,34366
7,1449501525,4330,1171,213.4165954589843800,69.2836227416992200,15.9866600036621100,32.7076301574707000,33.9602394104003900,36.4168090820312500,2.4565730094909670,919.1190185546875000,940.3864746093750000,381.4325866699219000,43073
7,1449501546,4330,1171,213.7570953369140600,69.4064865112304700,15.9950304031372070,32.6848487854003900,33.9377708435058600,36.3972396850585940,2.4594728946685790,918.4229736328125000,940.1481933593750000,381.1632995605469000,58129
7,1449501568,4330,1171,214.5158996582031200,69.6571426391601600,15.9979000091552730,32.6412200927734400,33.8947105407714840,36.3533210754394500,2.4586110115051270,916.7619018554688000,939.9949951171875000,381.0710144042969000,25806
7,1449501597,4330,1171,215.6080017089843800,70.0107498168945300,15.9972295761108400,32.5814590454101560,33.8357505798339840,36.2930412292480500,2.4572830200195312,914.6654052734375000,940.2781982421875000,381.0925903320312500,31045
7,1449501618,4330,1171,216.9685058593750000,70.4519271850586000,15.9968299865722660,32.5069999694824200,33.7622909545898440,36.2190589904785160,2.4567720890045166,912.1458740234375000,939.9304809570312000,381.1054077148437500,41419
7,1449501641,4330,1171,218.2362060546875000,70.8585281372070300,15.9934701919555660,32.4395790100097660,33.6957702636718750,36.1514816284179700,2.4557108879089355,909.7772216796875000,940.0646972656250000,381.2134094238281000,25247
7,1449501662,4330,1171,219.2476043701172000,71.1855697631836000,15.9925804138183600,32.3852691650390600,33.6421890258789060,36.0982704162597660,2.4560780525207520,907.8031005859375000,939.8698120117188000,381.2420959472656000,44099
7,1449501684,4330,1171,220.0204010009765600,71.4378585815429700,15.9935102462768550,32.3429603576660160,33.6004409790039060,36.0553092956543000,2.4548718929290770,906.2418823242188000,939.9462890625000000,381.2121887207031000,26398
7,1449501713,4330,1171,221.3432006835937500,71.9062271118164000,16.0189094543457030,32.2603416442871100,33.5189208984375000,35.9727516174316400,2.4538269042968750,903.3267211914062000,940.1326293945312000,380.3952941894531000,34319
7,1449501734,4330,1171,222.1710968017578000,72.2375869750976600,16.0596008300781250,32.1967010498046900,33.4561309814453100,35.9088897705078100,2.4527590274810790,901.0083007812500000,939.7448120117188000,379.0866088867187500,4491
7,1449501755,4330,1171,223.0301971435547000,72.6113433837890600,16.1208896636962900,32.1222381591796900,33.3826713562011700,35.8356018066406250,2.4529340267181396,898.3624877929688000,939.4028930664062000,377.1146850585937500,57106
7,1449501786,4330,1171,222.7519989013672000,72.7083969116211000,16.2427406311035160,32.0799407958984400,33.3409309387207000,35.7951812744140600,2.4542469978332520,896.8167114257812000,938.8892211914062000,373.1929931640625000,12402
7,1449501808,4330,1171,221.9723968505859400,72.5503921508789000,16.3055896759033200,32.0914916992187500,33.3523292541503900,35.8083610534668000,2.4560389518737793,897.0328979492188000,938.1223754882812000,371.1694946289062500,51637
7,1449501829,4330,1171,221.1510925292968800,72.3340835571289000,16.3396701812744140,32.1192893981933600,33.3797492980957000,35.8377799987793000,2.4580230712890625,897.8585815429688000,937.3682861328125000,370.0718078613281000,52762
7,1449501858,4330,1171,219.7951965332031200,72.0302276611328100,16.4314708709716800,32.1487808227539060,33.4088592529296900,35.8727302551269500,2.4638669490814210,898.9187011718750000,936.9254150390625000,367.1146850585937500,17615
7,1449501879,4330,1171,219.6322937011718800,71.9128265380859400,16.3893795013427730,32.1772003173828100,33.4368896484375000,35.9019889831543000,2.4651029109954834,899.8350219726562000,936.1583862304688000,368.4707031250000000,64874
7,1449501902,4330,1171,220.0507049560547000,72.1444396972656200,16.4515094757080080,32.1257705688476560,33.3861503601074200,35.8546295166015600,2.4684829711914062,897.8654785156250000,935.7943725585938000,366.4690856933594000,64252
7,1449501932,4330,1171,220.5332946777343800,72.3269729614257800,16.4674396514892580,32.0924491882324200,33.3532791137695300,35.8239898681640600,2.4707109928131104,896.6453857421875000,935.5286865234375000,365.9559936523437500,11488
7,1449501953,4330,1171,221.5973052978515600,72.6984863281250000,16.4821605682373050,32.0286903381347660,33.2903709411621100,35.7610893249511700,2.4707179069519043,894.2260742187500000,934.9412231445312000,365.4815063476562500,24565
7,1449501982,4330,1171,222.3504028320312500,73.0980300903320300,16.5812091827392580,31.9424190521240230,33.2052497863769500,35.6787300109863300,2.4734799861907960,891.2266845703125000,934.8638916015625000,362.2890930175781000,48675
7,1449502003,4330,1171,222.0041046142578000,73.0880966186523400,16.6488094329834000,31.9293804168701170,33.1923789978027340,35.6666908264160160,2.4743120670318604,890.7512207031250000,933.9774169921875000,360.1098022460937500,39661
7,1449502058,4330,1171,221.4683074951172000,73.1245574951171900,16.7874908447265620,31.8928699493408200,33.1563606262207000,35.6363983154296900,2.4800341129302980,889.1981811523438000,933.4141235351562000,355.6366882324219000,63857
7,1449502101,4330,1171,220.0175933837890600,72.9129867553711000,16.9628200531005860,31.8887691497802730,33.1523208618164060,35.6385803222656250,2.4862589836120605,888.6503295898438000,931.7208862304688000,349.9786987304687500,11700
7,1449502122,4330,1171,219.1217041015625000,72.6648025512695300,16.9948692321777340,31.9216804504394530,33.1847801208496100,35.6754112243652340,2.4906229972839355,889.7739257812500000,930.3928833007812000,348.9443054199219000,27224
7,1449502143,4330,1171,218.8565063476562500,72.6885986328125000,17.0684509277343750,31.9018192291259770,33.1651916503906250,35.6618614196777340,2.4966659545898438,888.9666137695312000,929.6022949218750000,346.5681152343750000,13438
7,1449502166,4330,1171,218.7465057373047000,72.8780364990234400,17.2172794342041000,31.8387603759765620,33.1029701232910160,35.6040611267089840,2.5010828971862793,886.4702148437500000,928.5482788085938000,341.7609863281250000,42904
7,1449502187,4330,1171,218.0182037353515600,72.9847869873046900,17.4479694366455080,31.7710094451904300,33.0361289978027340,35.5443611145019500,2.5082321166992188,883.7990112304688000,927.0930786132812000,334.3048095703125000,17828
7,1449502217,4330,1171,220.6448059082031200,74.1269531250000000,17.6192893981933600,31.5520801544189450,32.8201217651367200,35.3384704589843750,2.5183489322662354,875.4495849609375000,924.7191772460938000,328.7641906738281000,27368
7,1449502238,4330,1171,225.6759948730468800,75.9085769653320300,17.6774806976318360,31.2635002136230470,32.5353889465332000,35.0638084411621100,2.5284190177917480,864.8909301757812000,923.0004272460938000,326.8818969726562500,46030
7,1449502259,4330,1171,233.4244995117187500,78.6191329956054700,17.7416591644287100,30.8438491821289060,32.1213493347168000,34.6582412719726560,2.5368959903717040,849.6098022460938000,921.8297729492188000,324.8049926757812500,50043
7,1449502290,4330,1171,242.9060974121093800,81.8573303222656200,17.7681198120117200,30.3752307891845700,31.6589908599853500,34.2032318115234400,2.5442430973052980,832.6671752929688000,921.1317138671875000,323.9486999511719000,7576
7,1449502319,4330,1171,249.4418029785156200,84.0814666748046900,17.7806091308593750,30.0668792724609380,31.3547592163085940,33.9044990539550800,2.5497438907623290,821.5416870117188000,920.4818725585938000,323.5444030761719000,21667
7,1449502341,4330,1171,252.6652984619140600,85.1671371459961000,17.7800998687744140,29.9214706420898440,31.2112903594970700,33.7629890441894500,2.5517039299011230,816.3314819335938000,920.0858764648438000,323.5611877441406000,48121
7,1449502370,4330,1171,255.6116943359375000,86.1683731079101600,17.7846508026123050,29.7880592346191400,31.0796699523925780,33.6326408386230500,2.5529789924621580,811.4921875000000000,919.9898071289062000,323.4137878417969000,62805
7,1449502391,4330,1171,257.2556152343750000,86.7240295410156200,17.7854595184326170,29.7151508331298830,31.0077209472656250,33.5616111755371100,2.5538859367370605,808.8878173828125000,919.6145019531250000,323.3877868652344000,24206
7,1449502446,4330,1171,259.5216064453125000,87.4891815185546900,17.7861690521240230,29.6156597137451170,30.9095592498779300,33.4606590270996100,2.5511019229888916,805.1707763671875000,920.2811279296875000,323.3646850585937500,3995
7,1449502491,4330,1171,260.4993896484375000,87.8278503417968800,17.7911491394042970,29.5713005065917970,30.8658008575439450,33.4133415222168000,2.5475389957427980,803.7393188476562000,920.1920776367188000,323.2034912109375000,51861
7,1449502513,4330,1171,260.7911987304687500,87.9199066162109400,17.7876605987548830,29.5603008270263670,30.8549404144287100,33.4020614624023440,2.5471189022064210,803.2633056640625000,919.5889892578125000,323.3164062500000000,35938
7,1449502568,4330,1171,261.3163146972656000,88.0936126708984400,17.7858200073242200,29.5382499694824220,30.8331909179687500,33.3786392211914060,2.5454480648040770,802.5449218750000000,920.5664062500000000,323.3758850097656000,31185
7,1449502609,4330,1171,261.4870910644531000,88.1565170288086000,17.7887592315673830,29.5296592712402340,30.8247108459472660,33.3659210205078100,2.5412058830261230,802.1339721679688000,920.6712036132812000,323.2809143066406000,39520
7,1449502630,4330,1171,261.6293029785156000,88.2006378173828100,17.7866497039794920,29.5243701934814450,30.8194999694824220,33.3610496520996100,2.5415570735931396,801.9666137695312000,920.3464965820312000,323.3490905761719000,50220
7,1449502651,4330,1171,261.6849975585937500,88.2210388183593800,17.7875499725341800,29.5216693878173830,30.8168296813964840,33.3598518371582000,2.5430219173431396,801.7617797851562000,920.0996704101562000,323.3198852539062500,46799
7,1449502707,4330,1171,261.9399108886719000,88.2934799194336000,17.7801399230957030,29.5140495300292970,30.8093109130859380,33.3486099243164060,2.5392990112304688,801.6301879882812000,920.9819946289062000,323.5598144531250000,9148
7,1449502751,4330,1171,261.9838867187500000,88.3074035644531200,17.7796707153320300,29.5123405456542970,30.8076190948486330,33.3424911499023440,2.5348660945892334,801.5626220703125000,921.0748291015625000,323.5750122070312500,23150
7,1449502780,4330,1171,262.0867004394531000,88.3382263183593800,17.7775497436523440,29.5088996887207030,30.8042297363281250,33.3390998840332000,2.5348660945892334,801.4906005859375000,920.9335937500000000,323.6437072753906000,26225
7,1449502835,4330,1171,262.0062866210937500,88.3827209472656200,17.8168201446533200,29.4950809478759770,30.7905998229980470,33.3231582641601560,2.5325620174407960,801.0103759765625000,921.4196777343750000,322.3727111816406000,18346
7,1449502877,4330,1171,262.1217956542969000,88.4300308227539000,17.8213901519775400,29.4880599975585940,30.7836704254150400,33.3134117126464840,2.5297389030456543,800.6409912109375000,921.1901855468750000,322.2247009277344000,62102
7,1449502899,4330,1171,262.2193908691406000,88.4544830322265600,17.8167591094970700,29.4860496520996100,30.7816791534423830,33.3142204284668000,2.5325388908386230,800.4674072265625000,920.7097778320312000,322.3747863769531000,19332
7,1449502920,4330,1171,262.1950073242187500,88.4685974121093800,17.8289909362792970,29.4817199707031250,30.7774105072021500,33.3087615966796900,2.5313489437103270,800.2785034179688000,920.3740234375000000,321.9786987304687500,52470
7,1449502943,4330,1171,262.2709045410156000,88.4913635253906200,17.8274192810058600,29.4787693023681640,30.7744998931884770,33.3078918457031250,2.5333940982818604,800.1890258789062000,920.3751220703125000,322.0296020507812500,26338